{"data":{"norad_id":60345,"intl_designator":"2024-136S","name":"STARLINK-32075","alt_names":[],"object_type":"PAYLOAD","status":"ACTIVE","operator":null,"country":"US","launch_date":"2024-08-02","launch_site_code":"AFETR","launch_vehicle":null,"mission":null,"orbit_class":"UNKNOWN","rcs_meters":null,"size_class":null,"mass_kg":null,"dimensions":null,"purposes":["comms"],"wikipedia_slug":null,"has_3d_model":false,"image_url":null,"decayed_at":null,"tle_current":{"epoch":"2026-05-25T02:05:04.555392Z","epoch_age_seconds":77911,"freshness":"FRESH","line1":"1 60345U 24136S   26145.08685828 -.00000222  00000+0  46464-5 0  9992","line2":"2 60345  53.1610  80.6377 0001318  91.6122 268.5030 15.30194916101365","mean_motion":15.30194916,"eccentricity":0.0001318,"inclination_deg":53.161,"raan_deg":80.6377,"arg_perigee_deg":91.6122,"mean_anomaly_deg":268.503,"bstar":4.6464e-6,"rev_number":10136,"period_min":94.105658366989,"perigee_km":474.32697556549,"apogee_km":476.13352317242,"semimajor_km":6853.367249369,"source":"CELESTRAK","updated_at":"2026-05-25T13:38:19.235861Z"}}}